Location: Roland
(31.1349°N, 85.4372°W)
Time: 17:50:58
(UTC+00:00)

SR - Pass Details

Date: 20 April 2021
Orbit: 573 x 882 km, 66.7° (Epoch: 12 May)

Event Time Altitude Azimuth Distance (km) Brightness Sun altitude
Rises 13:07:01 0° 225° (SW) 3,234 ? 24.4°
Reaches altitude 10° 13:09:29 10° 233° (SW) 2,357 ? 24.9°
Maximum altitude 13:14:34 39° 301° (WNW) 1,238 ? 26.0°
Drops below altitude 10° 13:19:59 10° 9° (N) 2,510 ? 27.2°
Sets 13:22:42 0° 17° (NNE) 3,470 ? 27.8°
